When you browse on this site, cookies collect data to enhance your experience and personalize the content and advertising you see.
Visit our Privacy Policy to learn more. By continuing to use the site, you agree to this use of cookies and data.
  • In Österreich
  • Länderverzeichnis
  • Für 7 Tage
  • Wassertemperatur
  • Wetterkarte
  • News
  • Widgets
  • user-avatar
    Anmelden

    Stündliche Wetter Tecozautla

    Heute, 23 Oktober, Mittwoch

    Zeit Temperatur Niederschläge Wind Luftdruck Luftfeuchtigkeit
    00:00 +18°C° 0.1 mm 1 m/S 623 mmHg 90%
    01:00 +18°C° 0.1 mm 1 m/S 623 mmHg 91%
    02:00 +17°C° 0.1 mm 2 m/S 622 mmHg 91%
    03:00 +17°C° 0.1 mm 2 m/S 622 mmHg 92%
    04:00 +18°C° 0.1 mm 1 m/S 622 mmHg 92%
    05:00 +18°C° 0.1 mm 1 m/S 622 mmHg 93%
    06:00 +18°C° 0 mm 1 m/S 622 mmHg 90%
    07:00 +18°C° 0 mm 2 m/S 623 mmHg 88%
    08:00 +18°C° 0 mm 2 m/S 623 mmHg 85%
    09:00 +19°C° 0.1 mm 2 m/S 623 mmHg 82%
    10:00 +19°C° 0.1 mm 2 m/S 623 mmHg 78%
    11:00 +20°C° 0.1 mm 2 m/S 623 mmHg 74%
    12:00 +21°C° 0 mm 3 m/S 622 mmHg 69%
    13:00 +22°C° 0 mm 3 m/S 622 mmHg 65%
    14:00 +24°C° 0 mm 3 m/S 621 mmHg 60%
    15:00 +22°C° 0 mm 3 m/S 621 mmHg 66%
    16:00 +21°C° 0 mm 3 m/S 621 mmHg 72%
    17:00 +20°C° 0 mm 3 m/S 620 mmHg 78%
    18:00 +19°C° 0 mm 3 m/S 621 mmHg 83%
    19:00 +18°C° 0 mm 2 m/S 621 mmHg 87%
    20:00 +17°C° 0 mm 2 m/S 622 mmHg 92%
    21:00 +17°C° 0 mm 2 m/S 621 mmHg 92%
    22:00 +18°C° 0 mm 1 m/S 621 mmHg 92%
    23:00 +16°C° 0 mm 1 m/S 621 mmHg 92%

    Morgen, 24 Oktober, Donnerstag

    Zeit Temperatur Niederschläge Wind Luftdruck Luftfeuchtigkeit
    00:00 +16°C° 0 mm 1 m/S 620 mmHg 92%
    01:00 +16°C° 0 mm 1 m/S 620 mmHg 93%
    02:00 +14°C° 0 mm 0 m/S 620 mmHg 94%
    03:00 +14°C° 0 mm 0 m/S 619 mmHg 94%
    04:00 +14°C° 0 mm 0 m/S 619 mmHg 94%
    05:00 +14°C° 0 mm 0 m/S 619 mmHg 95%
    06:00 +15°C° 0 mm 0 m/S 620 mmHg 89%
    07:00 +16°C° 0 mm 0 m/S 621 mmHg 82%
    08:00 +17°C° 0 mm 0 m/S 621 mmHg 76%
    09:00 +19°C° 0 mm 0 m/S 621 mmHg 69%
    10:00 +23°C° 0 mm 1 m/S 622 mmHg 63%
    11:00 +24°C° 0 mm 2 m/S 622 mmHg 56%
    12:00 +25°C° 0 mm 2 m/S 621 mmHg 54%
    13:00 +25°C° 0 mm 2 m/S 621 mmHg 52%
    14:00 +26°C° 0 mm 2 m/S 620 mmHg 49%
    15:00 +25°C° 0.1 mm 3 m/S 620 mmHg 56%
    16:00 +24°C° 0.1 mm 3 m/S 620 mmHg 63%
    17:00 +22°C° 0.1 mm 3 m/S 619 mmHg 70%
    18:00 +21°C° 0.6 mm 2 m/S 620 mmHg 76%
    19:00 +20°C° 0.6 mm 2 m/S 620 mmHg 82%
    20:00 +19°C° 0.6 mm 2 m/S 620 mmHg 88%
    21:00 +19°C° 0.4 mm 2 m/S 620 mmHg 90%
    22:00 +19°C° 0.4 mm 1 m/S 620 mmHg 91%
    23:00 +19°C° 0.4 mm 1 m/S 620 mmHg 92%

    übermorgen, 25 Oktober, Freitag

    Zeit Temperatur Niederschläge Wind Luftdruck Luftfeuchtigkeit
    00:00 +19°C° 0.2 mm 1 m/S 620 mmHg 93%
    01:00 +19°C° 0.2 mm 1 m/S 620 mmHg 93%
    02:00 +18°C° 0.2 mm 1 m/S 620 mmHg 93%
    03:00 +18°C° 0.1 mm 1 m/S 620 mmHg 93%
    04:00 +18°C° 0.1 mm 1 m/S 620 mmHg 93%
    05:00 +18°C° 0.1 mm 1 m/S 620 mmHg 93%
    06:00 +19°C° 0 mm 1 m/S 621 mmHg 90%
    07:00 +18°C° 0 mm 2 m/S 621 mmHg 86%
    08:00 +19°C° 0 mm 2 m/S 622 mmHg 83%
    09:00 +20°C° 0.1 mm 2 m/S 622 mmHg 77%
    10:00 +21°C° 0.1 mm 2 m/S 622 mmHg 72%
    11:00 +22°C° 0.1 mm 3 m/S 622 mmHg 66%
    12:00 +22°C° 0.3 mm 4 m/S 622 mmHg 69%
    13:00 +21°C° 0.3 mm 4 m/S 621 mmHg 73%
    14:00 +21°C° 0.3 mm 5 m/S 621 mmHg 76%
    15:00 +19°C° 0.1 mm 5 m/S 621 mmHg 80%
    16:00 +18°C° 0.1 mm 4 m/S 620 mmHg 83%
    17:00 +17°C° 0.1 mm 4 m/S 620 mmHg 86%
    18:00 +17°C° 0.1 mm 4 m/S 621 mmHg 86%
    19:00 +16°C° 0.1 mm 3 m/S 621 mmHg 86%
    20:00 +16°C° 0.1 mm 3 m/S 622 mmHg 86%
    21:00 +16°C° 0.2 mm 3 m/S 622 mmHg 87%
    22:00 +14°C° 0.2 mm 3 m/S 622 mmHg 88%
    23:00 +14°C° 0.2 mm 3 m/S 622 mmHg 89%

    26 Oktober, Samstag

    Zeit Temperatur Niederschläge Wind Luftdruck Luftfeuchtigkeit
    00:00 +15°C° 0 mm 2 m/S 621 mmHg 90%
    01:00 +15°C° 0 mm 2 m/S 621 mmHg 91%
    02:00 +14°C° 0 mm 2 m/S 621 mmHg 91%
    03:00 +14°C° 0 mm 2 m/S 621 mmHg 91%
    04:00 +14°C° 0 mm 2 m/S 621 mmHg 91%
    05:00 +14°C° 0 mm 2 m/S 621 mmHg 91%
    06:00 +15°C° 0 mm 2 m/S 621 mmHg 89%
    07:00 +15°C° 0 mm 1 m/S 622 mmHg 86%
    08:00 +16°C° 0 mm 1 m/S 622 mmHg 83%
    09:00 +19°C° 0 mm 1 m/S 622 mmHg 76%
    10:00 +21°C° 0 mm 1 m/S 622 mmHg 70%
    11:00 +22°C° 0 mm 1 m/S 622 mmHg 63%
    12:00 +23°C° 0.1 mm 1 m/S 622 mmHg 62%
    13:00 +23°C° 0.1 mm 2 m/S 621 mmHg 60%
    14:00 +24°C° 0.1 mm 3 m/S 621 mmHg 59%
    15:00 +22°C° 0.1 mm 3 m/S 621 mmHg 64%
    16:00 +21°C° 0.1 mm 2 m/S 620 mmHg 68%
    17:00 +20°C° 0.1 mm 2 m/S 620 mmHg 73%
    18:00 +19°C° 0.1 mm 2 m/S 621 mmHg 75%
    19:00 +19°C° 0.1 mm 1 m/S 621 mmHg 78%
    20:00 +18°C° 0.1 mm 1 m/S 621 mmHg 80%
    21:00 +18°C° 0 mm 1 m/S 621 mmHg 81%
    22:00 +18°C° 0 mm 1 m/S 621 mmHg 82%
    23:00 +16°C° 0 mm 0 m/S 621 mmHg 83%

    27 Oktober, Sonntag

    Zeit Temperatur Niederschläge Wind Luftdruck Luftfeuchtigkeit
    00:00 +16°C° 0 mm 0 m/S 620 mmHg 84%
    01:00 +15°C° 0 mm 0 m/S 620 mmHg 85%
    02:00 +16°C° 0 mm 1 m/S 619 mmHg 86%
    03:00 +16°C° 0 mm 1 m/S 619 mmHg 86%
    04:00 +16°C° 0 mm 1 m/S 619 mmHg 87%
    05:00 +16°C° 0 mm 1 m/S 619 mmHg 87%
    06:00 +18°C° 0 mm 1 m/S 620 mmHg 82%
    07:00 +20°C° 0 mm 1 m/S 621 mmHg 77%
    08:00 +21°C° 0 mm 1 m/S 622 mmHg 71%
    09:00 +22°C° 0 mm 1 m/S 622 mmHg 66%
    10:00 +24°C° 0 mm 2 m/S 622 mmHg 61%
    11:00 +25°C° 0 mm 2 m/S 622 mmHg 56%
    12:00 +26°C° 0.2 mm 2 m/S 621 mmHg 54%
    13:00 +26°C° 0.2 mm 2 m/S 621 mmHg 52%
    14:00 +26°C° 0.2 mm 3 m/S 621 mmHg 50%
    15:00 +25°C° 0.2 mm 3 m/S 620 mmHg 57%
    16:00 +24°C° 0.2 mm 2 m/S 620 mmHg 63%
    17:00 +23°C° 0.2 mm 2 m/S 620 mmHg 70%
    18:00 +21°C° 0.1 mm 2 m/S 620 mmHg 74%
    19:00 +20°C° 0.1 mm 2 m/S 621 mmHg 78%
    20:00 +19°C° 0.1 mm 2 m/S 621 mmHg 82%
    21:00 +20°C° 0 mm 1 m/S 621 mmHg 82%
    22:00 +19°C° 0 mm 1 m/S 621 mmHg 83%
    23:00 +19°C° 0 mm 1 m/S 620 mmHg 84%

    28 Oktober, Montag

    Zeit Temperatur Niederschläge Wind Luftdruck Luftfeuchtigkeit
    00:00 +18°C° 0 mm 1 m/S 620 mmHg 83%
    01:00 +18°C° 0 mm 1 m/S 620 mmHg 83%
    02:00 +18°C° 0 mm 1 m/S 620 mmHg 83%
    03:00 +15°C° 0 mm 0 m/S 620 mmHg 83%
    04:00 +15°C° 0 mm 0 m/S 620 mmHg 83%
    05:00 +15°C° 0 mm 0 m/S 620 mmHg 84%
    06:00 +18°C° 0 mm 1 m/S 621 mmHg 77%
    07:00 +20°C° 0 mm 1 m/S 622 mmHg 70%
    08:00 +22°C° 0 mm 1 m/S 623 mmHg 63%
    09:00 +23°C° 0 mm 2 m/S 623 mmHg 58%
    10:00 +24°C° 0 mm 3 m/S 623 mmHg 53%
    11:00 +25°C° 0 mm 4 m/S 624 mmHg 48%
    12:00 +25°C° 0 mm 5 m/S 623 mmHg 51%
    13:00 +23°C° 0 mm 5 m/S 622 mmHg 54%
    14:00 +23°C° 0 mm 6 m/S 622 mmHg 56%
    15:00 +21°C° 0 mm 6 m/S 621 mmHg 63%
    16:00 +19°C° 0 mm 5 m/S 621 mmHg 70%
    17:00 +17°C° 0 mm 5 m/S 621 mmHg 77%
    18:00 +17°C° 0 mm 4 m/S 622 mmHg 78%
    19:00 +17°C° 0 mm 4 m/S 622 mmHg 79%
    20:00 +16°C° 0 mm 3 m/S 623 mmHg 80%
    21:00 +16°C° 0 mm 3 m/S 623 mmHg 81%
    22:00 +16°C° 0 mm 3 m/S 623 mmHg 82%
    23:00 +16°C° 0 mm 3 m/S 623 mmHg 83%

    29 Oktober, Dienstag

    Zeit Temperatur Niederschläge Wind Luftdruck Luftfeuchtigkeit
    00:00 +16°C° 0 mm 2 m/S 623 mmHg 84%
    01:00 +16°C° 0 mm 2 m/S 623 mmHg 85%
    02:00 +15°C° 0 mm 2 m/S 622 mmHg 86%
    03:00 +15°C° 0 mm 2 m/S 622 mmHg 88%
    04:00 +15°C° 0 mm 2 m/S 622 mmHg 89%
    05:00 +15°C° 0 mm 2 m/S 622 mmHg 91%
    06:00 +15°C° 0 mm 2 m/S 623 mmHg 88%
    07:00 +15°C° 0 mm 2 m/S 623 mmHg 85%
    08:00 +16°C° 0 mm 3 m/S 624 mmHg 82%
    09:00 +16°C° 0 mm 3 m/S 623 mmHg 79%
    10:00 +17°C° 0 mm 3 m/S 623 mmHg 76%
    11:00 +17°C° 0 mm 3 m/S 623 mmHg 73%
    12:00 +18°C° 0 mm 3 m/S 623 mmHg 70%
    13:00 +19°C° 0 mm 3 m/S 622 mmHg 67%
    14:00 +20°C° 0 mm 3 m/S 622 mmHg 63%
    15:00 +19°C° 0 mm 3 m/S 622 mmHg 69%
    16:00 +18°C° 0 mm 3 m/S 622 mmHg 74%
    17:00 +17°C° 0 mm 3 m/S 621 mmHg 79%
    18:00 +16°C° 0 mm 3 m/S 622 mmHg 81%
    19:00 +15°C° 0 mm 2 m/S 622 mmHg 84%
    20:00 +14°C° 0 mm 2 m/S 622 mmHg 86%
    21:00 +14°C° 0 mm 2 m/S 622 mmHg 85%
    22:00 +15°C° 0 mm 2 m/S 622 mmHg 83%
    23:00 +15°C° 0 mm 1 m/S 623 mmHg 82%
    Mehr zeigen